Weather Roundup
Issued by NWS Chicago, IL

Home | Current Version | Previous Version | Text Only | Print | Product List | Glossary Off
Versions: 1 2 3 4 5 6 7 8 9 10 11 12 13 14 15 16 17 18 19 20 21 22 23 24 25 26 27 28 29 30 31 32 33 34 35 36 37 38 39 40 41 42 43 44 45 46 47 48 49 50

000
NZUS59 KLOT 111108
HRRLOT

CHICAGO AREA WEATHER ROUNDUP
NATIONAL WEATHER SERVICE CHICAGO/ROMEOVILLE IL
500 AM CST THU FEB 11 2016

NOTE: "FAIR" INDICATES FEW OR NO CLOUDS BELOW 12,000 FEET WITH NO
SIGNIFICANT WEATHER AND/OR OBSTRUCTIONS TO VISIBILITY.

* THESE STATIONS ARE NOT UNDER NWS QUALITY CONTROL. THEY ALSO MAY NOT
  REPORT WEATHER SUCH AS PRECIPITATION OR FOG.

ILZ005-006-012>014-019>023-111200-
NORTHEAST ILLINOIS

CITY           SKY/WX    TMP DP  RH WIND       PRES   REMARKS
OHARE          CLEAR      8  -2  63 N12       30.23R WCI  -7
MIDWAY         CLEAR     11  -2  56 NW9       30.24R WCI  -2
AURORA         CLEAR      8   1  73 N8        30.25R WCI  -4
LANSING*       CLEAR     10   0  64 W3        30.23R
JOLIET*        CLEAR     10   3  72 NW3       30.25R
WAUKEGAN       CLEAR      4  -3  73 VRB5      30.23R WCI  -5
DUPAGE AIRPORT CLEAR      6  -3  66 N8        30.23R WCI  -7
WHEELING       CLEAR      7  -3  64 NW7       30.25R WCI  -5
KANKAKEE*      PTCLDY    12   2  65 NW5       30.25R WCI   4
MORRIS*        CLEAR      9   2  75 NW3       30.22F
LEWIS AIRPORT* PTCLDY     9   1  69 N8        30.24R WCI  -4
$$

WIZ051-052-058>065-066-070>072-111200-
SOUTHEAST WISCONSIN

CITY           SKY/WX    TMP DP  RH WIND       PRES   REMARKS
MILWAUKEE      CLEAR      6  -4  63 NW9       30.22R WCI  -8
KENOSHA*       CLEAR      5  -4  66 NW9       30.22R WCI  -9
RACINE*        CLEAR      5  -5  63 W8        30.24R WCI  -8
BURLINGTON     CLEAR      1  -6  74 NW6       30.23R WCI -11
WEST BEND      CLEAR      3  -6  66 CALM      30.22R
$$

INZ001>003-010>013-019-020-111200-
NORTHWEST INDIANA

CITY           SKY/WX    TMP DP  RH WIND       PRES   REMARKS
GARY*          PTCLDY    12   0  57 W9        30.23R WCI   0
MICHIGAN CITY* NOT AVBL
RENSSELAER*    NOT AVBL
VALPARAISO     CLOUDY    13   4  67 W9        30.19R WCI   1
$$

LMZ740>746-111200-
SOUTHERN LAKE MICHIGAN

STATION/POSITION TIME  SKY/WX   TEMP WIND        PRES    VSBY
                                AIR  DIR/SP/G
                 (UTC)          (F)  (DEG/KT/KT) (MB)    (MI)
HARRISON CRIB    1000            13  310/ 14/ 16   N/A
BURNHAM HARBOR   1100            13  310/  3/  8   N/A
CALUMET HARBOR   1000            12                N/A
BURNS HARBOR     1001            18  330/ 13/ 20 1022.4R
MICHIGAN CITY    1000            18  320/ 17/ 21   N/A
$$

ABBREVIATIONS USED IN REMARKS
   TC - TEMPERATURE IN CELSIUS
  WCI - WIND CHILL INDEX
   HX - HEAT INDEX
  VSB - VISIBILITY
$$



USA.gov is the U.S. government's official web portal to all federal, state and local government web resources and services.